Showing default

GLOBALSTAR M036, 25623

Orbit data source: Space-Track

GLOBALSTAR M036, 25623 is a payload satellite owned by Globalstar (US) in LEO that was launched on Tue, 09 Feb 1999 UTC via a SOYUZ-U-PVB launch vehicle from the Tyuratam Missile And Space Complex (TTMTR). Payload-class satellites include a variety of spacecraft equipped with specific instruments for various scientific and technological missions. These include communications satellites like Starlink; space stations such as the ISS; scientific satellites like the Hubble; Earth observation satellites from companies like Planet Labs, Umbra, and HawkEye 360; GPS; miniature CubeSats for education and research; and military/defense satellites.

Loading next visibility...
Identifier
25623, 1999-004C
Orbit
LEO
Country
Flag of UnknownUnknown / GLOB
Related business
Manufacturer
SS/Loral
Mission
Non-operational Commercial Communications
Bus & Motor
LS-400, LS-400 AOCS
Mass
450 kg wet, 380 kg dry
Launch date (UTC)
1999-02-09 (27 years ago)
Launch vehicle
SOYUZ-U-PVB
Launch site
Tyuratam Missile And Space Complex (TTMTR)
Object type
Payload
Rocket body
Debris
Shape & HBR
Box + 2 Pan, 6.0 m
Radar Cross Section
5.587 m², Large (>1 m²)

Expand to show TLE details & history
Last TLE update: 1 day ago

TLE from 1 day ago
0 GLOBALSTAR M036
1 25623U 99004C   25305.54094894 -.00000028  00000-0  80082-3 0  9990
2 25623  51.9963 238.2818 0010654 316.4232 214.9090 11.86613761195282
Epoch: 2025-11-01T12:58Z
TLE epoch observation values (Epoch: 2025-11-01T12:58:57.988Z)
Latitude
6.84536°
Longitude
177.1139°
Altitude
1,748.484 km
Speed
7.003 km/s
True Right ascension
03h 31m 42s
True Declination
6° 48' 35"
Sunlit
Object was in full shadow at epoch
Visualization orbit readout
Latitude
Unknown
Longitude
Unknown
Altitude
Unknown
Speed
Unknown
Apparent Right ascension
Unknown
Apparent Declination
Unknown
Sunlit
N/A
Visualization observer readout
Local Sidereal Time
11:29:24
Azimuth
Unknown
Elevation
Unknown
Doppler factor
Unknown
Orbital elements
Apogee altitude
1,750.384 km
Perigee altitude
1,733.083 km
Semi-major axis
8,119.871 km
Eccentricity
0.00107
Inclination
51.9963°
RAAN
238.2818°
Arg. of periapsis
316.4232°
True anomaly
214.83921°
Mean anomaly
214.909°
Eccentric anomaly
214.8741°
Mean motion
2.96633 °/min
Orbital period
121.36 mins
BSTAR
0.00080082
Loading maneuver chart data...
Computing Atmospheric mass density...
Loading historical data...
Loading historical data...
Loading historical data...
Loading historical data...
Loading historical data...
Loading historical data...
Loading historical data...
Other satellites on launch #4 in the year 1999 (1999-02-09 UTC)

Documentation

Showing up to 5 results
|